{"data":{"norad_id":43187,"epoch":"2026-09-20T04:36:37.099584Z","epoch_age_seconds":78745,"freshness":"FRESH","line1":"1 43187U 18014H   26263.19209606  .00002915  00000+0  14918-3 0  9991","line2":"2 43187  97.5253 167.3715 0010124  51.8522 308.3622 15.17383788473163","mean_motion":15.17383788,"eccentricity":0.0010124,"inclination_deg":97.5253,"raan_deg":167.3715,"arg_perigee_deg":51.8522,"mean_anomaly_deg":308.3622,"bstar":0.00014918,"rev_number":47316,"period_min":94.900183551981,"perigee_km":506.77371213487,"apogee_km":520.72840707796,"semimajor_km":6891.8880596064,"source":"CELESTRAK","updated_at":"2026-09-20T09:00:14.307301Z"}}